Wind_Speed
25 24 23 22 21 21 20 19 18 18 17 17 17 17 19 20 21 21 20 20 20 22 24 29 32 31 31 22 16 10 9 10 12 4 7 11 8 4 3 4 9 4 4 18 19 24 16
27 26 25 24 23 22 21 20 19 19 18 17 17 18 20 20 21 21 21 22 23 22 25 28 29 29 27 10 8 7 12 7 5 4 6 5 5 7 4 3 1 7 14 21 19 28 16
29 28 27 25 25 23 23 22 20 19 19 17 17 18 19 22 21 22 23 25 24 27 27 26 29 28 25 26 8 9 3 2 7 6 7 8 7 7 6 7 5 11 7 9 8 8 5
31 29 28 27 26 25 24 22 21 20 19 18 18 18 19 20 22 24 25 26 29 28 26 28 26 25 17 20 10 5 1 5 7 7 8 9 8 9 4 6 8 5 3 5 5 6 4
33 31 29 28 27 25 25 23 23 21 20 18 18 18 18 20 22 23 25 28 29 28 27 24 18 13 15 5 5 5 4 19 18 12 10 12 12 4 2 2 4 4 3 2 9 1 2
36 34 32 30 28 27 25 24 24 22 21 19 18 18 18 21 22 22 26 29 30 18 16 13 7 8 9 3 7 9 11 23 14 15 13 3 2 2 2 3 4 3 4 3 6 6 7
40 38 36 33 31 29 27 26 25 23 23 21 19 20 20 21 21 21 25 31 12 7 14 16 28 31 35 35 35 37 33 18 12 4 2 2 1 7 11 8 5 6 4 7 6 7 3
44 42 39 37 35 33 30 29 28 26 25 24 22 21 21 20 18 19 18 11 9 9 19 30 33 30 29 28 13 18 4 7 4 3 2 3 8 9 5 5 8 9 9 12 7 5 4
46 45 43 40 38 36 34 32 31 30 28 27 26 23 20 20 18 17 14 11 10 12 7 19 6 8 4 2 5 5 5 4 3 2 4 6 6 4 6 8 6 6 7 5 7 3 5
49 48 46 44 42 39 37 35 34 33 32 31 28 25 22 19 17 14 13 8 8 13 4 7 4 1 2 1 4 4 7 2 0 3 3 5 7 5 2 6 4 4 5 6 5 2 4
52 51 49 47 45 43 41 39 38 36 35 34 32 25 23 20 12 11 8 3 6 5 6 3 2 3 2 3 8 1 7 7 4 4 3 7 4 2 3 4 1 7 3 5 2 3 3
58 55 53 51 50 46 44 43 41 40 38 37 34 29 28 26 24 17 12 3 2 5 7 5 1 1 1 2 2 3 4 6 2 2 3 8 3 3 7 5 6 5 3 2 3 2 7
56 57 58 57 54 51 49 48 44 43 41 41 38 37 35 32 30 21 12 5 3 4 3 3 1 2 3 2 2 3 3 2 3 3 2 5 5 5 4 3 3 3 4 3 4 1 7
50 50 50 53 59 57 57 52 48 45 43 43 43 44 39 34 27 23 18 3 8 6 6 2 3 3 2 4 2 4 2 3 4 4 1 4 6 3 3 2 3 3 6 5 6 3 4
53 50 51 51 48 46 52 57 54 48 45 47 48 45 38 32 27 26 24 4 8 7 3 1 2 2 2 2 3 6 3 3 6 7 2 3 5 2 2 2 1 2 3 2 2 1 3
59 60 60 56 52 51 49 49 46 44 40 52 52 41 37 31 27 29 9 9 6 3 2 1 5 3 1 2 3 4 2 3 2 1 2 3 6 5 2 1 2 3 2 3 2 3 6
58 58 59 58 57 55 53 50 46 41 44 46 44 17 25 28 28 22 8 8 7 5 4 2 2 3 4 2 3 3 3 1 3 4 3 2 3 4 3 2 5 3 1 0 2 4 5
60 59 59 59 57 55 55 52 45 47 47 50 30 5 37 35 8 5 6 7 11 5 5 0 3 3 4 5 4 3 6 5 5 3 3 3 3 5 8 6 7 6 6 6 4 9 3
60 60 60 58 55 54 54 53 45 51 51 51 23 7 31 40 8 5 5 10 5 5 4 4 5 2 2 3 3 6 4 1 7 3 3 4 3 6 9 3 5 3 3 3 2 2 3
59 62 63 60 57 57 56 51 52 57 64 55 20 4 8 22 9 10 11 10 8 15 8 6 4 4 6 6 5 3 2 2 7 1 2 3 4 6 12 12 5 17 19 12 3 4 12
58 63 62 58 61 58 56 57 62 68 70 52 18 6 11 9 13 14 14 11 10 7 10 9 7 13 8 7 6 9 5 2 3 4 4 6 13 10 17 17 17 20 19 5 10 15 12
54 61 64 61 61 57 59 67 70 74 64 32 16 9 8 13 22 12 13 9 9 13 8 9 9 1 5 6 6 4 5 3 5 4 5 4 10 4 21 14 15 19 17 8 12 15 15
64 66 60 50 52 64 73 74 76 69 56 15 13 22 20 11 8 9 9 10 14 9 6 11 8 5 6 6 7 7 10 8 7 3 6 5 3 2 19 6 9 12 12 13 12 14 11
48 50 53 61 68 73 74 69 68 54 34 22 28 22 7 4 5 5 11 11 12 13 6 3 3 5 3 4 11 11 12 15 16 15 15 8 8 5 11 6 10 6 3 5 10 16 9
62 65 71 72 65 57 49 49 49 46 19 28 26 19 6 4 8 10 11 7 10 6 4 3 5 6 7 2 1 4 3 4 9 15 17 17 11 6 7 5 5 12 6 3 4 20 4
55 57 56 54 51 54 55 50 43 36 22 27 22 18 10 7 5 11 9 7 3 3 3 3 3 5 4 2 2 4 4 2 4 6 3 13 13 9 3 3 4 4 1 12 3 10 3
46 49 49 51 43 48 45 45 46 31 28 26 22 19 14 7 10 19 6 8 8 5 3 3 5 5 6 3 2 3 3 3 5 5 4 2 3 12 10 8 6 8 15 13 5 4 2
52 51 46 44 42 40 38 36 32 24 20 24 22 17 13 6 14 11 13 16 10 8 4 7 4 1 2 3 3 3 3 1 3 4 4 4 3 4 4 6 10 13 10 5 10 10 13
45 44 43 40 35 30 27 23 21 20 20 17 20 16 14 12 10 14 12 12 14 13 11 11 2 5 6 3 1 1 2 2 2 2 5 4 3 2 2 4 6 11 11 23 24 22 22
Wind_Direction
239 240 241 243 245 249 253 257 261 267 271 277 284 291 296 300 305 310 313 315 318 322 325 326 322 323 328 320 309 289 286 320 326 331 0 358 14 2 320 317 333 208 324 316 298 298 284
241 240 242 242 244 248 251 255 259 264 269 275 283 290 294 298 304 309 311 313 318 323 321 320 316 317 319 301 323 284 297 296 307 322 349 3 352 336 278 295 151 313 306 299 307 306 284
240 240 243 243 245 246 250 253 256 260 266 273 281 287 293 300 306 309 310 312 314 319 317 313 309 308 302 296 290 305 321 352 0 316 324 351 342 343 332 321 333 296 307 327 328 312 309
239 239 240 241 243 246 248 251 255 258 263 270 278 284 292 299 307 310 310 313 315 319 313 308 305 301 279 305 277 268 293 334 321 293 299 319 316 304 273 307 329 336 18 338 304 343 315
238 238 239 241 242 245 248 250 254 256 261 267 274 280 289 298 305 309 313 316 318 317 309 305 304 294 278 320 247 217 302 333 328 321 312 293 288 269 253 53 350 356 257 271 318 177 357
237 238 239 241 242 243 246 250 253 257 260 265 271 278 289 296 303 306 317 319 321 324 304 311 296 311 263 286 247 242 279 318 315 311 300 258 246 109 46 92 241 240 277 294 255 284 8
239 238 239 239 242 243 245 248 252 256 261 263 267 277 285 293 300 310 320 325 345 322 297 282 274 273 276 281 279 279 285 288 281 240 210 277 203 217 215 200 229 261 263 261 261 267 297
241 241 241 240 242 244 246 249 251 254 258 261 267 272 281 288 292 303 317 327 337 319 302 296 290 275 277 279 284 299 231 210 172 198 166 356 243 229 222 221 224 244 255 270 270 254 203
243 243 242 242 242 243 245 248 251 252 255 257 261 265 275 285 285 290 296 293 316 329 282 304 282 273 336 270 227 290 196 174 187 211 211 206 248 16 199 264 230 242 222 233 238 308 300
242 242 242 242 243 243 245 247 250 251 252 254 256 262 262 273 276 275 269 282 321 327 359 280 277 263 180 244 271 273 210 205 205 237 222 236 273 290 258 236 199 256 222 234 252 322 277
241 242 243 243 242 243 245 247 248 251 252 252 252 255 249 250 241 231 250 260 323 339 335 263 236 167 180 199 314 194 191 182 226 233 84 248 292 316 326 252 243 241 255 260 279 274 18
241 242 241 242 244 242 244 247 247 249 249 250 248 245 235 238 236 230 220 216 309 47 250 307 184 222 87 231 270 302 216 237 265 261 210 241 264 237 215 242 215 246 226 22 62 119 270
243 241 243 241 242 245 244 245 246 250 247 247 244 240 236 239 226 212 199 165 44 182 325 277 305 186 210 233 252 213 207 225 215 324 301 330 270 278 209 246 341 132 98 301 304 217 238
245 244 240 241 244 246 248 244 244 246 251 250 241 235 224 218 212 197 181 86 221 213 251 336 8 321 238 20 284 324 266 268 262 196 166 226 311 220 20 145 211 248 170 181 251 225 250
241 239 237 238 238 244 247 243 249 248 249 250 231 214 207 197 191 176 158 192 204 198 251 66 315 208 240 42 36 3 353 238 26 23 223 289 255 323 132 172 105 322 236 187 270 262 311
236 239 243 243 242 244 244 248 250 249 254 248 212 196 195 182 175 170 167 220 230 214 59 28 174 59 216 336 54 31 276 6 137 106 193 315 297 246 293 185 10 175 221 344 360 269 245
239 239 240 242 244 246 246 245 248 249 242 248 193 159 183 166 167 165 205 194 220 148 168 208 185 185 198 197 171 196 279 286 32 357 12 317 159 278 360 195 197 339 159 319 230 191 241
236 237 242 242 244 244 247 247 241 236 233 206 173 154 166 171 135 192 201 184 211 153 185 159 349 261 210 181 230 223 219 232 58 37 30 334 273 264 217 199 191 203 213 186 204 263 238
240 236 238 244 246 245 245 244 239 221 218 185 166 134 168 171 195 191 190 205 184 229 211 192 233 252 336 200 258 214 234 302 98 70 78 13 344 327 307 36 13 318 3 84 16 237 249
241 237 236 239 245 246 243 236 222 214 204 185 157 139 164 182 210 180 176 187 182 198 202 217 254 262 270 261 220 261 215 334 320 33 147 164 209 202 262 270 278 283 276 279 209 238 268
240 237 237 238 242 243 232 226 217 201 181 179 176 178 176 180 196 181 165 172 179 183 222 226 252 239 229 251 234 238 243 299 266 262 205 168 260 250 264 273 276 270 272 251 244 252 252
231 232 236 237 242 232 222 217 204 187 174 177 148 150 152 157 159 142 163 175 162 197 191 204 222 311 224 216 209 270 292 213 217 238 200 192 261 266 277 276 268 272 275 269 265 264 259
233 234 238 231 218 210 203 193 183 173 174 158 142 140 133 143 145 149 171 151 188 196 232 235 266 296 277 284 297 271 253 241 242 207 212 200 210 207 269 277 297 269 246 250 259 263 258
219 212 207 195 187 182 179 174 170 175 176 147 134 130 105 115 129 141 155 166 182 189 195 134 126 167 210 280 304 290 268 247 236 237 217 223 222 230 269 243 238 274 236 246 242 260 264
170 170 165 164 164 158 162 170 170 173 170 155 144 138 110 107 132 146 152 153 133 143 152 200 247 259 252 231 314 308 304 285 234 229 222 212 224 247 252 229 280 290 267 237 285 286 301
136 139 142 148 155 159 164 167 174 172 157 158 156 163 141 117 193 139 137 156 138 136 133 187 148 192 168 120 168 218 239 276 290 313 237 220 220 223 226 257 259 242 341 352 18 278 295
150 147 149 151 150 155 158 168 175 173 175 177 157 171 172 109 153 153 149 169 151 139 132 139 161 161 186 166 186 203 238 250 246 251 246 153 199 216 235 250 269 355 336 320 260 289 283
140 142 147 149 148 150 157 164 165 166 150 158 152 167 177 108 155 166 151 147 149 157 143 168 104 244 134 164 169 196 213 301 281 270 273 215 198 214 220 240 255 2 351 310 332 273 285
142 144 144 142 142 143 145 150 153 157 158 170 146 147 150 136 154 177 178 179 190 188 178 175 178 156 158 94 144 121 231 238 317 273 304 253 176 319 269 250 247 232 226 289 280 273 289
Height
1531 1533 1535 1537 1538 1540 1541 1543 1543 1544 1544 1543 1543 1542 1541 1540 1539 1537 1535 1533 1530 1527 1525 1521 1516 1512 1508 1506 1500 1498 1497 1496 1494 1492 1492 1491 1490 1489 1491 1491 1488 1486 1482 1480 1477 1475 1473
1527 1528 1531 1532 1534 1536 1537 1539 1540 1541 1541 1541 1540 1540 1539 1537 1537 1534 1532 1530 1528 1526 1523 1519 1514 1512 1509 1506 1498 1497 1495 1495 1493 1491 1491 1490 1490 1489 1487 1487 1489 1484 1481 1476 1471 1467 1467
1521 1523 1526 1528 1530 1532 1534 1535 1536 1537 1538 1538 1538 1537 1536 1536 1535 1533 1530 1527 1525 1522 1519 1515 1511 1508 1505 1498 1495 1494 1494 1493 1492 1491 1490 1490 1490 1490 1488 1487 1485 1483 1483 1474 1468 1467 1466
1515 1518 1521 1523 1525 1527 1529 1531 1533 1534 1535 1534 1535 1534 1534 1533 1532 1530 1527 1524 1521 1518 1515 1510 1508 1503 1497 1493 1492 1492 1491 1492 1491 1490 1490 1489 1489 1488 1488 1486 1485 1486 1484 1489 1470 1468 1466
1509 1512 1515 1518 1521 1523 1525 1527 1529 1530 1531 1531 1532 1532 1531 1531 1530 1527 1525 1521 1518 1514 1510 1506 1504 1501 1491 1489 1490 1490 1490 1491 1490 1489 1489 1488 1488 1487 1487 1490 1495 1491 1497 1489 1480 1468 1467
1502 1505 1509 1512 1515 1518 1521 1523 1525 1527 1528 1528 1529 1530 1529 1529 1527 1525 1523 1518 1515 1511 1507 1505 1501 1502 1490 1489 1488 1488 1489 1489 1489 1487 1487 1486 1485 1488 1491 1497 1506 1495 1493 1490 1492 1473 1468
1496 1498 1502 1505 1509 1513 1516 1518 1521 1523 1525 1525 1525 1527 1527 1526 1525 1524 1522 1516 1515 1511 1506 1506 1500 1495 1489 1487 1488 1484 1486 1485 1486 1486 1489 1486 1490 1492 1486 1486 1485 1487 1489 1491 1483 1472 1471
1488 1491 1495 1498 1502 1506 1509 1513 1515 1518 1520 1522 1522 1523 1524 1524 1523 1524 1522 1520 1520 1521 1501 1494 1488 1486 1482 1482 1479 1478 1479 1483 1482 1486 1485 1490 1489 1478 1479 1482 1484 1485 1488 1485 1477 1470 1471
1479 1483 1487 1490 1494 1498 1502 1506 1510 1512 1515 1517 1518 1520 1521 1521 1521 1523 1522 1521 1520 1518 1513 1485 1482 1481 1480 1480 1479 1477 1480 1479 1481 1484 1486 1490 1479 1475 1480 1479 1483 1482 1484 1480 1478 1470 1468
1469 1474 1478 1482 1487 1490 1494 1498 1503 1506 1509 1511 1513 1515 1518 1519 1522 1520 1521 1520 1520 1518 1519 1493 1482 1479 1480 1480 1480 1477 1478 1480 1479 1482 1482 1486 1476 1477 1475 1478 1476 1481 1470 1471 1473 1477 1487
1457 1463 1468 1473 1477 1482 1485 1490 1495 1499 1503 1505 1508 1510 1512 1515 1517 1518 1520 1520 1520 1519 1533 1485 1481 1480 1478 1481 1481 1477 1479 1478 1480 1479 1480 1481 1475 1474 1475 1474 1469 1475 1467 1468 1469 1476 1481
1446 1452 1456 1462 1468 1471 1476 1482 1485 1490 1495 1499 1501 1503 1505 1507 1512 1515 1517 1519 1521 1531 1526 1487 1480 1480 1480 1479 1479 1478 1479 1479 1477 1478 1478 1476 1470 1471 1469 1466 1466 1463 1467 1471 1479 1483 1489
1433 1438 1445 1450 1455 1461 1466 1471 1476 1480 1484 1490 1493 1495 1496 1500 1502 1509 1515 1519 1529 1529 1493 1485 1482 1480 1480 1480 1479 1477 1479 1481 1482 1483 1484 1479 1474 1467 1465 1467 1465 1465 1475 1492 1491 1489 1482
1420 1426 1431 1437 1444 1450 1455 1460 1466 1471 1477 1481 1484 1485 1485 1490 1498 1501 1511 1521 1525 1499 1493 1482 1482 1480 1482 1479 1478 1479 1478 1482 1475 1478 1485 1484 1484 1466 1465 1468 1470 1469 1475 1492 1487 1489 1481
1412 1416 1421 1426 1431 1437 1443 1450 1456 1462 1468 1472 1473 1472 1476 1484 1491 1498 1504 1519 1502 1495 1485 1486 1481 1482 1481 1481 1482 1481 1481 1481 1482 1481 1484 1482 1478 1464 1463 1464 1467 1470 1477 1471 1478 1479 1484
1398 1405 1411 1415 1421 1426 1432 1440 1446 1453 1458 1462 1460 1465 1468 1479 1487 1494 1500 1498 1490 1484 1485 1484 1483 1484 1487 1486 1485 1487 1483 1479 1481 1481 1479 1480 1483 1466 1464 1464 1466 1467 1469 1481 1483 1484 1484
1385 1390 1397 1403 1408 1416 1423 1428 1439 1443 1449 1458 1456 1462 1465 1474 1482 1489 1488 1486 1480 1482 1486 1485 1483 1482 1482 1483 1485 1486 1482 1479 1479 1479 1477 1477 1481 1475 1469 1468 1470 1471 1472 1474 1475 1478 1474
1369 1376 1384 1391 1397 1404 1413 1418 1428 1435 1441 1448 1451 1460 1460 1468 1479 1480 1478 1480 1477 1478 1484 1483 1484 1482 1481 1481 1482 1482 1481 1479 1478 1480 1484 1482 1482 1483 1472 1465 1463 1465 1466 1469 1481 1470 1475
1358 1361 1368 1378 1386 1394 1400 1408 1416 1423 1427 1439 1447 1455 1455 1457 1467 1471 1475 1473 1475 1477 1479 1482 1483 1481 1480 1481 1484 1479 1479 1476 1478 1481 1484 1483 1489 1491 1470 1469 1467 1467 1466 1468 1471 1472 1472
1343 1348 1354 1362 1373 1380 1388 1396 1402 1409 1415 1422 1440 1453 1453 1455 1454 1459 1464 1467 1474 1476 1478 1481 1480 1480 1484 1483 1479 1478 1478 1477 1478 1480 1480 1481 1487 1490 1487 1478 1478 1474 1466 1467 1471 1475 1469
1327 1334 1339 1345 1354 1368 1377 1385 1389 1397 1402 1408 1420 1429 1428 1439 1446 1450 1454 1464 1468 1472 1475 1477 1479 1478 1479 1483 1478 1476 1475 1475 1478 1478 1477 1479 1479 1482 1471 1470 1469 1465 1460 1466 1467 1460 1464
1308 1317 1325 1330 1341 1350 1362 1367 1378 1389 1393 1399 1405 1414 1422 1428 1437 1444 1449 1455 1461 1466 1470 1470 1473 1472 1477 1480 1478 1478 1476 1477 1476 1476 1477 1475 1474 1476 1467 1468 1464 1460 1455 1461 1458 1455 1449
1288 1297 1309 1317 1326 1339 1348 1357 1370 1379 1387 1390 1398 1403 1409 1427 1431 1438 1442 1449 1455 1462 1463 1465 1469 1471 1474 1475 1476 1473 1474 1473 1471 1474 1475 1474 1476 1479 1466 1464 1464 1461 1454 1450 1446 1441 1440
1271 1283 1299 1308 1319 1330 1342 1354 1366 1376 1386 1385 1391 1398 1408 1419 1429 1435 1442 1447 1455 1459 1459 1462 1467 1470 1473 1474 1474 1472 1469 1469 1468 1466 1468 1467 1470 1473 1465 1464 1458 1440 1436 1436 1439 1432 1432
1266 1280 1291 1301 1319 1337 1352 1360 1369 1380 1389 1395 1398 1403 1413 1420 1428 1434 1441 1449 1453 1458 1461 1462 1465 1466 1469 1472 1475 1473 1472 1466 1455 1453 1454 1455 1462 1464 1460 1453 1445 1436 1433 1432 1434 1427 1425
1277 1285 1298 1313 1328 1342 1355 1363 1374 1384 1391 1398 1405 1411 1417 1422 1426 1431 1441 1448 1451 1456 1461 1459 1461 1465 1468 1470 1473 1469 1467 1464 1456 1450 1445 1448 1453 1459 1459 1452 1450 1430 1431 1431 1430 1431 1426
1293 1299 1311 1324 1337 1348 1358 1370 1379 1386 1393 1399 1407 1413 1419 1423 1426 1431 1436 1444 1448 1451 1455 1457 1461 1466 1465 1469 1472 1470 1467 1460 1461 1452 1448 1451 1454 1450 1448 1450 1448 1440 1436 1432 1436 1427 1423
1303 1312 1323 1334 1343 1353 1362 1371 1378 1387 1394 1400 1408 1415 1419 1421 1427 1430 1434 1438 1446 1449 1454 1458 1464 1465 1466 1470 1468 1468 1468 1464 1461 1452 1448 1447 1453 1451 1446 1448 1445 1439 1433 1437 1433 1426 1423
1314 1323 1332 1340 1349 1359 1369 1376 1382 1391 1399 1406 1409 1415 1417 1421 1429 1433 1435 1437 1444 1446 1451 1455 1454 1456 1459 1465 1468 1469 1466 1467 1461 1457 1449 1451 1444 1449 1450 1444 1435 1433 1432 1431 1428 1426 1422